DW3886 Weather Reports


time (UTC)temp
C
wind
direction
speed
KPH
gust
KPH
rain 1hr
cm
rain 24hr
cm
rain mn
cm
humidity
%
barometer
mb
20260504174517 26 248 8.0 22.5 0.00 0.00 0.00 38 1000.6
20260504173537 26 270 9.7 19.3 0.00 0.00 0.00 37 1000.7
20260504172537 25 270 9.7 22.5 0.00 0.00 0.00 37 1000.6
20260504171517 25 270 8.0 17.7 0.00 0.00 0.00 36 1000.7
20260504170517 25 270 8.0 22.5 0.00 0.00 0.00 36 1000.8
20260504150517 20 158 4.8 9.7 0.00 0.00 0.00 57 1001.5
20260504140517 17 203 4.8 11.3 0.00 0.00 0.00 58 1002.2
20260504130517 14 203 3.2 6.4 0.00 0.00 0.00 62 1002.5
20260504110517 11 0.0 3.2 0.00 0.00 0.00 67 1002.8
20260504100517 10 158 1.6 6.4 0.00 0.00 0.00 67 1003.5
20260504081521 10 0.0 0.0 0.00 0.00 0.00 66 1004.4
20260504080517 10 0.0 0.0 0.00 0.00 0.00 65 1004.4
20260504050517 12 0.0 0.0 0.00 0.00 0.00 56 1006.7
20260504045517 12 0.0 0.0 0.00 0.00 0.00 56 1006.8
20260504044517 12 0.0 0.0 0.00 0.00 0.00 53 1006.8
20260504043517 13 0.0 0.0 0.00 0.00 0.00 53 1006.9
20260504042517 13 0.0 0.0 0.00 0.00 0.00 52 1007.0
20260504041517 13 0.0 0.0 0.00 0.00 0.00 50 1007.0
20260504040538 14 0.0 0.0 0.00 0.00 0.00 47 1007.2
20260504035517 14 0.0 0.0 0.00 0.00 0.00 47 1007.3
20260504034518 15 0.0 4.8 0.00 0.00 0.00 46 1007.5
20260504033517 15 0.0 4.8 0.00 0.00 0.00 46 1007.6
20260504032517 15 0.0 1.6 0.00 0.00 0.00 45 1007.7
20260504031537 15 0.0 1.6 0.00 0.00 0.00 44 1007.8
20260504030518 15 0.0 3.2 0.00 0.00 0.00 45 1007.8
20260504025517 15 248 1.6 4.8 0.00 0.00 0.00 44 1007.8
20260504024517 15 203 1.6 9.7 0.00 0.00 0.00 44 1007.7
20260504023517 15 0.0 0.0 0.00 0.00 0.00 46 1007.6
20260504022518 15 0.0 0.0 0.00 0.00 0.00 43 1007.7
20260504021517 16 0.0 0.0 0.00 0.00 0.00 42 1007.6
20260504020517 16 0.0 0.0 0.00 0.00 0.00 41 1007.5
20260504015517 16 0.0 1.6 0.00 0.00 0.00 42 1007.5
20260504014537 17 0.0 1.6 0.00 0.00 0.00 40 1007.4
20260504013515 17 0.0 3.2 0.00 0.00 0.00 39 1007.4
20260504012538 18 0.0 3.2 0.00 0.00 0.00 40 1007.5
20260504011517 18 0.0 0.0 0.00 0.00 0.00 39 1007.5
20260504010517 20 0.0 0.0 0.00 0.00 0.00 38 1007.5
20260504005517 20 0.0 1.6 0.00 0.00 0.00 35 1007.6
20260504004517 21 248 1.6 4.8 0.00 0.00 0.00 32 1007.5
20260504003517 22 0.0 3.2 0.00 0.00 0.00 32 1007.6
20260504002517 22 270 3.2 6.4 0.00 0.00 0.00 30 1007.7
20260504001517 23 293 3.2 8.0 0.00 0.00 0.00 30 1007.6
20260504000517 23 315 1.6 6.4 0.00 0.00 0.00 29 1007.7
20260504000423 23 293 1.6 4.8 0.00 0.00 0.00 30 1007.7